Location: Grisols
(45.0093°N, 3.1167°E)
Time: 00:53:57
(UTC+00:00)

Cosmos 2278 Rocket - Pass Details

Date: 21 October 2019
Orbit: 840 x 847 km, 71.0° (Epoch: 11 November)

Event Time Altitude Azimuth Distance (km) Brightness Sun altitude
Rises 18:37:03 0° 223° (SW) 3,393 5.9 -19.0°
Reaches altitude 10° 18:39:35 10° 229° (SW) 2,463 5.2 -19.5°
Maximum altitude 18:45:01 46° 302° (WNW) 1,121 3.2 -20.5°
Drops below altitude 10° 18:50:29 10° 16° (NNE) 2,480 4.5 -21.4°
Sets 18:53:03 0° 22° (NNE) 3,419 5.2 -21.9°
